Simultaneous Nadir Overpasses (SNOs) Predictions

Prediction of SNOs between AQUA and NOAA-19 Satellite Orbit:

Table of predicted SNOs for the next 14.0 days since TLE Epoch: 12/27/2019
Index Date (AQUA) Time (AQUA) Lat,Lon (AQUA) SZA (AQUA ) Date (NOAA-19) Time (NOAA-19) Lat,Lon (NOAA-19) SZA (NOAA-19 ) Distance(km) Time Diff (sec)
1 12/28/2019 07:00:01 -80.07,-136.29 75.30 12/28/2019 06:58:49 -80.07,-136.11 75.29 3.55 72
2 12/28/2019 07:49:29 80.09, 31.20 104.73 12/28/2019 07:49:54 80.08, 31.22 104.71 1.24 25
3 12/30/2019 13:23:12 -80.08, 127.83 75.39 12/30/2019 13:23:10 -80.08, 128.01 75.41 3.58 2
4 01/01/2020 18:56:57 80.09,-135.64 104.48 01/01/2020 18:56:37 80.06,-135.55 104.46 3.49 20
5 01/01/2020 19:46:22 -80.06, 32.22 75.57 01/01/2020 19:47:31 -80.09, 32.13 75.56 3.51 69
6 01/04/2020 00:30:39 -80.04, -38.71 75.77 01/04/2020 00:29:53 -80.06, -38.78 75.74 2.09 46
7 01/04/2020 01:20:07 80.07, 128.70 104.27 01/04/2020 01:20:58 80.07, 128.56 104.26 2.81 51
8 01/06/2020 06:04:24 80.06, 57.72 104.04 01/06/2020 06:03:20 80.03, 57.60 104.05 3.65 64
9 01/06/2020 06:53:50 -80.06,-134.66 75.97 01/06/2020 06:54:14 -80.07,-134.67 75.97 0.61 24
10 01/08/2020 12:27:34 80.05, -37.98 103.76 01/08/2020 12:27:40 80.06, -38.02 103.77 1.62 6
11 01/10/2020 18:01:17 -80.04, 58.68 76.55 01/10/2020 18:00:57 -80.05, 58.53 76.53 2.92 20




NCC Satellite Simultaneous Nadir Overpasses (SNOs) Prediction Service
